Location: *
(60.1550°N, 1.1450°W)
Time: 15:15:39
(UTC+00:00)

Daily predictions for brighter satellites

Satellite Brightness Start Highest point End
(mag) Time Altitude Azimuth Time Altitude Azimuth Time Altitude Azimuth
Cosmos 1758 3.5 17:13:23 10° SSW 17:17:22 81° WNW 17:21:23 10° NNE
PSLV R/B 4.0 17:13:25 10° NNE 17:17:33 66° ESE 17:21:43 10° S
H-2A R/B 4.4 17:18:25 10° N 17:21:56 23° NW 17:25:26 10° W
SMAP 3.4 17:17:33 10° S 17:22:12 72° WSW 17:26:54 10° NNW
CORIOLIS 4.4 17:18:00 10° SSE 17:23:23 81° WSW 17:28:49 10° NNW
Cosmos 371 Rocket 4.2 17:18:46 10° WSW 17:23:27 48° NW 17:28:09 10° NNE
Cosmos 2058 Rocket 3.4 17:19:25 10° SSE 17:23:31 42° E 17:27:40 10° NNE
Cosmos 1300 4.4 17:23:17 10° ESE 17:25:15 14° E 17:27:12 10° NE
Cosmos 1328 3.8 17:21:48 10° NNW 17:25:49 88° WSW 17:29:46 10° SSE
Cosmos 2227 Rocket 3.6 17:21:36 10° WNW 17:26:31 29° N 17:31:27 10° NE
COSMO-SKYMED 1 3.6 17:25:13 10° NE 17:28:50 25° E 17:32:26 10° SSE
NOAA 12 4.2 17:23:46 10° SSE 17:29:06 88° ENE 17:34:29 10° NNW
Okean O Rocket 4.1 17:25:17 10° SSW 17:29:07 28° W 17:32:57 10° NNW
Envisat 3.0 17:24:14 10° SSE 17:29:18 74° ENE 17:34:24 10° NNW
Cosmos 1898 Rocket 3.7 17:25:35 10° NNW 17:30:47 55° NE 17:36:00 10° SE
Cosmos 2297 Rocket 3.6 17:26:12 10° WNW 17:31:04 28° N 17:35:57 10° NE
Cosmos 2082 Rocket 2.4 17:26:10 10° NW 17:31:55 80° SW 17:37:37 10° SSE
Cosmos 1356 3.8 17:31:21 10° S 17:34:38 43° E 17:37:57 10° NNE
H-2A R/B 3.4 17:32:10 10° S 17:36:05 64° WSW 17:40:01 10° NNW
Cosmos 2058 3.6 17:32:23 10° N 17:36:17 35° ENE 17:40:10 10° SE
CSL-04 Debris 4.2 17:30:59 10° SE 17:36:23 62° ENE 17:41:50 10° NNW
CZ-4 R/B 4.4 17:34:27 10° SSE 17:38:32 65° ENE 17:42:39 10° NNW
CZ-2D R/B 3.9 17:36:50 10° SE 17:40:23 35° ENE 17:43:57 10° N
Cosmos 1459 Rocket 4.3 17:35:41 10° N 17:41:37 44° ENE 17:47:36 10° SE
Cosmos 1844 Rocket 2.7 17:36:21 10° SW 17:42:01 86° SE 17:47:41 10° NE
Cosmos 1076 Rocket 3.8 17:38:29 10° N 17:42:45 48° ENE 17:46:59 10° SE
H-2A R/B 3.3 17:40:45 10° E 17:45:02 25° NE 17:49:21 10° N
Cosmos 1606 Rocket 3.8 17:46:33 10° SSW 17:50:54 76° WNW 17:55:16 10° NNE
CZ-4B R/B 4.0 17:50:17 10° N 17:52:30 18° WNW 17:54:43 10° WSW
In-Cosmos 22 Rocket 4.3 17:48:32 10° NNW 17:53:47 50° ENE 17:59:08 10° SE
Cosmos 1726 2.0 17:50:52 10° S 17:54:29 70° E 17:58:09 10° NNE
Cosmos 1939 Rocket 3.3 17:50:43 10° SE 17:54:34 43° ENE 17:58:29 10° N
Okean-O 3.5 17:50:16 10° S 17:54:38 55° WSW 17:59:02 10° NNW
Cosmos 1703 4.1 17:51:11 10° NNW 17:55:03 54° W 17:58:53 10° S
Cosmos 2061 Rocket 4.4 17:49:17 10° N 17:55:14 42° ENE 18:01:06 10° SE
Cosmos 1605 Rocket 4.1 17:50:21 10° NNW 17:56:36 85° W 18:02:44 10° S
IRS-1A Rocket 4.5 17:51:45 10° SE 17:57:01 48° ENE 18:02:22 10° NNW
Cosmos 724 4.4 17:50:54 10° WSW 17:57:01 82° NNW 18:02:53 11° ENE
ATLAS 5 CENTAUR R/B 1.8 17:52:28 10° WSW 17:57:04 88° NNW 18:01:49 13° ENE
Cosmos 2084 3.5 17:53:50 10° WSW 17:58:19 79° SSE 18:01:57 15° ENE
Cosmos 2151 3.7 17:54:26 10° N 17:58:22 32° ENE 18:02:16 10° SE
Okean 3 Rocket 4.1 17:55:36 10° N 17:59:54 39° ENE 18:04:08 10° SE
NOSS 3-2 (A) 4.4 17:57:22 10° S 18:02:15 27° ESE 18:06:32 14° ENE
Cosmos 1818 4.0 18:04:48 10° WNW 18:10:10 52° N 18:14:09 18° ENE
Ariane Rocket 3.0 18:06:58 10° SE 18:11:59 60° ENE 18:17:02 10° NNW
ASTEX 1 3.4 18:07:18 10° N 18:12:18 84° E 18:17:18 10° S
Cosmos 2228 3.7 18:08:04 10° SSW 18:12:21 58° WNW 18:16:38 10° N
Cosmos 1812 Rocket 3.9 18:08:11 10° SSE 18:12:23 42° E 18:16:38 10° NNE
Cosmos 2173 Rocket 4.0 18:06:24 10° N 18:12:39 62° ENE 18:18:47 10° SSE
Meteor 2-10 3.9 18:08:20 10° SSW 18:13:22 84° ESE 18:18:29 10° NNE
Cosmos 1992 Rocket 4.5 18:08:17 10° SW 18:13:28 64° NW 18:18:42 10° NNE
Cosmos 1607 4.3 18:07:43 10° W 18:13:49 60° NNW 18:18:52 16° ENE
Cosmos 1908 3.1 18:10:28 10° S 18:14:21 76° ESE 18:18:15 10° NNE
HJ-1C 3.8 18:13:18 15° SE 18:15:49 41° ENE 18:19:01 10° N
Cosmos 990 Rocket 4.0 18:11:16 10° NNW 18:16:31 88° ENE 18:21:46 10° SSE
Resurs 01 Rocket 3.1 18:15:52 18° ENE 18:16:52 19° NE 18:20:00 10° N
deb Kosmos-1763 4.1 18:13:08 10° NNW 18:16:52 63° NE 18:19:41 16° SE
SKYMED 2 3.6 18:12:57 10° NNE 18:17:15 55° ESE 18:21:32 10° S
Lacrosse 5 4.3 18:13:41 10° W 18:17:19 20° SW 18:20:57 10° S
Cosmos 921 Rocket 3.4 18:13:42 10° SW 18:18:10 68° WNW 18:22:33 10° NNE
Cosmos 2219 4.4 18:13:44 10° NW 18:18:40 29° N 18:22:14 16° ENE
Cosmos 1727 Rocket 4.0 18:13:10 10° S 18:19:09 56° E 18:25:13 10° NNE
Cosmos 2278 Rocket 2.3 18:13:48 10° SSW 18:19:21 56° ESE 18:24:55 10° NE
Cosmos 1937 Rocket 3.4 18:14:14 10° NNW 18:19:25 79° NE 18:24:34 10° SE
Meteor 1-16 Rocket 4.3 18:14:29 10° SSW 18:19:55 76° WNW 18:25:17 10° NNE
YAOGAN 6 3.1 18:16:36 10° S 18:20:12 61° WSW 18:23:46 10° NNW
Cosmos 2150 Rocket 4.3 18:15:35 10° NNW 18:20:56 50° NE 18:24:42 19° ESE
Cosmos 858 Rocket 4.4 18:16:26 10° NNW 18:21:41 83° ENE 18:26:54 10° SE
YAOGAN 1 2.8 18:19:05 10° S 18:23:25 73° WSW 18:27:46 10° NNW
CSL-04 Rocket 4.0 18:20:04 10° SSE 18:25:34 72° WSW 18:31:02 10° NNW
Cosmos 1825 3.3 18:22:31 10° N 18:25:41 24° ENE 18:25:54 24° ENE
Cosmos 1802 Rocket 4.0 18:20:45 10° NNW 18:27:11 66° ENE 18:33:34 10° SSE
Cosmos 1844 4.0 18:22:09 10° SW 18:27:55 70° NW 18:33:46 10° NE
FREGAT/IRIS 3.3 18:28:28 32° NE 18:28:28 32° NE 18:30:47 10° N
NOSS 3-2 (C) 4.4 18:24:27 10° S 18:29:22 27° ESE 18:31:44 22° E
CZ-4 R/B 2.3 18:25:29 10° S 18:29:38 53° W 18:33:49 10° NNW
ARGOS 3.7 18:27:50 20° ESE 18:30:59 39° NE 18:36:00 10° N
Cosmos 2263 Rocket 3.5 18:26:52 10° W 18:31:59 34° NNW 18:37:05 10° NE
USA 116 3.5 18:29:29 10° NNE 18:32:35 44° ESE 18:35:52 10° S
SJ-11-01 4.5 18:28:54 15° SE 18:32:35 50° ENE 18:37:08 10° N
Cosmos 2233 Rocket 4.4 18:27:24 10° N 18:33:20 41° ENE 18:37:21 20° ESE
ATLAS CENTAUR R/B 1.6 18:29:05 10° WNW 18:33:48 73° NNE 18:36:02 29° ESE
Cosmos 1892 2.7 18:31:24 10° N 18:35:11 56° ENE 18:37:37 20° SE
USA 186 3.8 18:37:37 11° N 18:37:37 11° N 18:37:43 10° N
Cosmos 1725 Rocket 4.1 18:30:58 10° N 18:37:09 56° ENE 18:43:21 10° SSE
SJ-6B 3.3 18:36:45 33° E 18:37:28 36° ENE 18:40:57 10° N
Cosmos 372 Rocket 4.1 18:33:31 10° NNW 18:38:38 57° NE 18:41:29 25° ESE
MONITOR-E 3.9 18:41:00 57° E 18:41:07 58° ENE 18:43:54 10° N
Cosmos 2100 Rocket 4.0 18:37:17 10° NNW 18:43:32 88° W 18:49:42 10° S
SL-27 R/B 2.2 18:40:13 10° NNW 18:43:33 89° WSW 18:45:03 30° SSE
Cosmos-2242 3.6 18:39:40 10° SSE 18:43:36 35° E 18:47:32 10° NNE
GEOS 3 Rocket 4.1 18:42:00 21° ENE 18:45:16 52° N 18:50:18 10° W
Cosmos 44 4.2 18:41:31 10° S 18:45:15 26° SE 18:45:15 26° SE
COSMOS 2487 3.4 18:43:15 10° NNW 18:46:18 30° NE 18:46:18 30° NE
NOAA 11 4.3 18:42:34 10° SSE 18:48:01 76° WSW 18:53:29 10° NNW
Cosmos 1763 Rocket 4.5 18:44:06 10° SSE 18:47:27 26° SE 18:47:27 26° SE
CZ-2C R/B 3.8 18:48:12 28° ESE 18:50:33 40° ENE 18:55:46 10° N
Cosmos 292 Rocket 4.2 18:46:09 10° SW 18:50:53 63° NW 18:55:39 10° NNE
Cosmos 2298 Rocket 4.0 18:46:10 10° NNW 18:51:32 74° NE 18:54:40 25° SE
ATLAS 3B R/B 3.4 18:46:20 10° S 18:51:48 28° ESE 18:52:29 27° ESE
SJ 16-02 1.6 18:48:13 10° NNW 18:52:37 68° WSW 18:56:27 13° SSE
Cosmos 1743 Rocket 4.1 18:48:54 10° N 18:52:58 36° ENE 18:53:16 36° ENE
CENTAUR R/B 3.3 18:52:04 10° S 18:57:26 31° ESE 18:58:23 29° ESE
Cosmos 1833 4.2 18:52:11 10° NW 18:57:49 66° NE 19:00:23 33° ESE
Cosmos 2016 Rocket 3.9 18:51:44 10° NNW 18:58:03 82° ENE 19:04:25 10° SSE
Cosmos 1300 2.5 18:56:27 10° S 19:00:17 82° ESE 19:04:09 10° NNE
Terra 3.9 19:02:32 13° NE 19:02:34 13° NE 19:04:45 10° N
Cosmos 1408 2.6 19:00:33 10° N 19:04:15 59° ENE 19:04:20 59° E
COSMO-SKYMED 1 2.9 19:01:03 10° NNE 19:05:24 66° WNW 19:09:43 10° SSW
Meteor 2-3 Rocket 3.9 19:00:09 10° NNW 19:05:49 52° ENE 19:07:59 35° ESE
SL-08 R/B 4.3 19:01:25 10° NNW 19:07:36 82° ENE 19:13:42 10° SSE
SPOT 3 Rocket 3.5 19:05:59 28° SE 19:08:47 70° ENE 19:14:00 10° NNW
Cosmos 2227 Rocket 3.3 19:07:03 10° NW 19:12:09 32° NNE 19:14:09 25° NE
Cosmos 2058 4.2 19:09:19 10° NNW 19:13:19 43° W 19:17:19 10° SSW
Cosmos 2297 Rocket 3.2 19:11:33 10° NW 19:16:40 33° NNE 19:18:26 27° NE
MetOp-A 4.3 19:18:13 44° ESE 19:19:25 53° ENE 19:24:38 10° NNW
Cosmos 1766 Rocket 3.8 19:16:45 10° NNW 19:21:05 66° W 19:24:13 18° S
H-2A R/B 2.0 19:21:20 34° SSE 19:23:48 78° ENE 19:29:18 10° NNW
Cosmos 1500 Rocket 3.6 19:21:59 10° N 19:26:21 59° ENE 19:26:21 59° ENE
Cosmos 1844 Rocket 3.9 19:21:11 10° W 19:26:29 39° NNW 19:31:02 14° NE
USA 238 DEB 3.6 19:23:44 10° SW 19:30:28 68° SE 19:33:36 35° ENE
USA 238 3.6 19:23:51 10° SW 19:30:34 67° SE 19:33:40 35° ENE
Cosmos 1408 Rocket 3.6 19:26:20 10° NNW 19:30:40 77° W 19:32:02 43° S
DMSP B5D1-3 4.5 19:27:58 10° NNE 19:33:09 84° WNW 19:38:18 10° SSW
Cosmos 2151 3.9 19:31:41 10° NNW 19:35:52 49° W 19:39:06 16° SSW
SL-08 RB Rocket 3.6 19:36:00 68° ENE 19:36:00 68° ENE 19:40:30 10° NNW
Cosmos 1125 Rocket 3.4 19:31:54 10° NNW 19:37:14 82° NE 19:38:14 60° SE
Cosmos 2084 3.7 19:33:37 10° W 19:38:04 62° N 19:38:29 58° NNE
Timation 2 Rocket 3.8 19:32:08 10° NW 19:38:10 78° NE 19:39:40 53° ESE
ATLAS 5 CENTAUR R/B 2.2 19:37:16 10° W 19:42:06 61° N 19:43:20 48° NE
SPOT 5 4.3 19:44:26 27° NE 19:44:26 27° NE 19:48:09 10° N
NOSS 3-2 (A) 3.4 19:46:01 10° SW 19:52:07 72° SE 19:53:56 50° ENE
Resurs 01 Rocket 1.9 19:53:25 60° N 19:53:25 60° N 19:57:12 10° NNW
Cosmos 972 Rocket 4.1 19:48:17 10° NNW 19:53:35 85° WSW 19:54:43 59° SSE
Cosmos 1818 3.4 19:48:48 10° WNW 19:54:18 78° NNE 19:54:47 71° ENE
ADEOS Rocket 3.4 19:47:26 10° NNE 19:55:08 62° E 19:59:59 23° S
Cosmos 468 Rocket 3.8 19:50:08 10° SSW 19:55:24 82° ESE 19:55:55 72° NE
Cosmos 1238 Rocket 4.0 19:49:18 10° NNW 19:56:02 89° WSW 19:58:18 44° S
Resurs 1-3 3.7 19:57:10 73° NNW 19:57:10 73° NNW 20:01:11 10° NNW
Meteor 2-1 Rocket 4.5 19:51:44 10° SSW 19:57:16 67° WNW 20:02:56 10° NNE
Cosmos 1825 3.2 19:57:47 10° NNW 20:00:44 44° NW 20:00:44 44° NW
Cosmos 1607 4.1 19:55:42 10° WNW 20:01:49 60° NNE 20:02:58 51° NE
Cosmos 2278 Rocket 2.9 19:58:01 10° WSW 20:03:35 52° NW 20:07:32 19° NNE
Cosmos 2219 3.5 19:58:29 10° NW 20:04:02 51° NE 20:04:09 51° NE
Cosmos 1072 Rocket 4.3 19:59:59 10° NNW 20:06:11 67° ENE 20:06:23 67° E
Cosmos 1464 Rocket 3.9 20:01:44 10° NNW 20:08:04 66° ENE 20:08:17 65° E
Cosmos 2297 3.6 20:03:54 10° SW 20:09:39 87° NW 20:11:17 49° NE
ARGOS 3.6 20:09:22 40° SSW 20:11:07 60° WSW 20:16:32 10° NNW
SJ-6B 4.2 20:12:24 35° W 20:12:24 35° W 20:15:40 10° NNW
ATLAS CENTAUR R/B 2.6 20:08:20 10° WNW 20:12:14 39° WSW 20:12:14 39° WSW
Cosmos 1891 Rocket 4.4 20:07:04 10° NNW 20:13:34 70° ENE 20:13:53 69° E
Cosmos 2263 Rocket 3.6 20:12:37 10° NW 20:17:26 28° N 20:18:50 25° NNE
Cosmos 2233 Rocket 4.4 20:12:49 10° NNW 20:19:00 61° W 20:21:58 32° SSW
NOSS 3-2 (C) 3.4 20:13:12 10° SW 20:19:12 72° SSE 20:19:12 72° SSE
Cosmos 2123 Rocket 4.1 20:14:23 10° SSW 20:20:41 75° WNW 20:26:58 10° NNE
Cosmos-2242 4.1 20:16:58 10° SW 20:21:07 43° WNW 20:25:17 10° N
ERS-1 Rocket 4.0 20:23:05 36° NNE 20:23:05 36° NNE 20:26:27 10° NNW
GEOS 3 Rocket 3.9 20:23:07 59° N 20:23:07 59° N 20:28:05 10° WNW
Spot 2 Rocket 3.8 20:24:20 61° N 20:24:20 61° N 20:28:33 10° NNW
SPOT 1/Viking Rocket 4.4 20:29:02 41° NNE 20:29:02 41° NNE 20:32:37 10° NNW
CZ-2C R/B 3.6 20:29:17 53° SW 20:30:16 61° WSW 20:35:54 10° NNW
SJ 16-02 4.1 20:28:06 10° WNW 20:30:25 14° W 20:32:43 10° SW
SL-24 R/B - RUBIN 2 4.4 20:25:07 10° WNW 20:30:51 71° NNE 20:30:51 71° NNE
MetOp-B 4.3 20:34:26 67° NNW 20:34:26 67° NNW 20:39:04 10° NNW
Terra 3.5 20:41:25 25° N 20:41:25 25° N 20:43:40 10° N
ATLAS 3B R/B 3.0 20:35:01 10° SW 20:39:46 49° SSW 20:39:46 49° SSW
CENTAUR R/B 2.9 20:40:46 10° SW 20:45:37 55° SW 20:45:37 55° SW
Cosmos 2034 Rocket 4.1 20:42:42 10° NNW 20:48:12 70° N 20:48:12 70° N
Cosmos 2227 Rocket 2.8 20:51:31 10° NW 20:55:57 51° N 20:55:57 51° N
Cosmos 2297 Rocket 2.9 20:55:56 10° NW 21:00:14 50° NNW 21:00:14 50° NNW
H-2A R/B 3.9 21:01:58 23° WSW 21:03:48 28° W 21:08:27 10° NNW
Cosmos 1844 Rocket 4.3 21:07:00 10° WNW 21:11:48 27° N 21:12:41 26° NNE
SPOT 5 4.4 21:23:41 36° NNW 21:23:41 36° NNW 21:26:41 10° NNW
USA 238 DEB 3.9 21:14:40 10° W 21:21:02 70° NW 21:21:02 70° NW
USA 238 3.9 21:14:46 10° W 21:21:06 70° NW 21:21:06 70° NW
ATLAS 5 CENTAUR R/B 3.4 21:22:01 10° WNW 21:24:52 35° WNW 21:24:52 35° WNW
Resurs 01 Rocket 4.0 21:31:01 20° WNW 21:31:01 20° WNW 21:33:18 10° NW
ADEOS Rocket 4.2 21:33:06 10° NNE 21:40:32 51° NW 21:46:53 13° SW
NOSS 3-2 (A) 4.3 21:36:48 10° W 21:41:20 49° WNW 21:41:20 49° WNW
Cosmos 2278 Rocket 3.8 21:43:53 10° WNW 21:48:52 30° NNW 21:49:22 29° N
Cosmos 2263 Rocket 3.8 21:57:21 10° NW 22:00:30 30° NNW 22:00:30 30° NNW
Terra 4.4 22:20:18 18° NNW 22:20:18 18° NNW 22:21:37 10° NNW
Cosmos 2227 Rocket 4.3 22:35:49 10° NW 22:37:46 21° NW 22:37:46 21° NW
Cosmos 2297 Rocket 4.4 22:40:16 10° NW 22:42:02 19° WNW 22:42:02 19° WNW
SL-16 R/B 4.2 23:25:32 27° NNE 23:25:32 27° NNE 23:29:32 10° NNW
